Temperature
2 2 2 3 3 3 3 4 4 5 5 5 6 6 6 6 6 6 7 7 7 7 7 7 7 7 8 7 8 8 8 8 8 8 8 8 7 7 7 7 7 7 7
1 1 2 2 2 3 3 3 4 4 4 5 5 5 5 5 6 6 6 6 6 7 7 7 7 7 7 7 7 7 7 7 7 8 8 7 7 7 7 7 7 6 6
0 1 1 2 2 2 2 3 3 4 4 4 4 5 5 5 5 6 6 6 6 6 6 7 7 7 7 7 7 7 7 7 7 7 7 7 7 7 6 6 6 6 6
-0 0 0 1 1 2 2 2 3 3 4 4 4 4 5 5 5 5 5 6 6 6 6 6 6 6 6 6 6 6 6 6 6 6 6 6 6 6 6 6 6 6 6
-1 -1 -0 0 1 1 1 2 2 3 3 3 4 4 4 4 4 4 5 5 5 6 6 6 6 6 6 6 6 6 6 6 6 6 6 6 6 6 6 6 5 5 5
-2 -1 -1 -1 -0 0 0 1 1 2 2 3 3 3 4 4 4 4 4 5 5 5 5 6 6 6 5 5 5 5 5 5 5 5 5 5 5 5 5 5 5 5 5
-2 -2 -2 -1 -1 -1 -0 0 1 1 2 2 2 3 3 3 3 4 4 4 4 5 5 5 5 5 5 5 5 5 5 5 5 5 5 5 5 5 5 4 4 4 4
-3 -3 -2 -2 -2 -1 -1 -1 -0 0 1 1 2 2 2 3 3 3 3 4 4 4 4 4 4 5 5 5 5 4 4 4 4 4 4 4 4 4 4 4 4 3 3
-4 -3 -3 -3 -2 -2 -2 -1 -1 -1 -0 0 1 1 2 2 2 3 3 3 3 3 3 3 4 4 4 4 4 4 4 4 4 4 4 3 3 3 3 3 3 3 3
-4 -4 -4 -3 -3 -3 -2 -2 -2 -1 -1 -1 -0 1 1 1 2 2 2 2 2 3 3 3 3 3 3 3 3 3 3 3 3 3 3 3 3 3 3 3 3 3 2
-5 -5 -4 -4 -4 -3 -3 -3 -2 -2 -2 -1 -1 -0 0 1 1 1 2 2 2 2 2 2 2 2 3 3 3 3 3 3 3 3 3 3 2 2 2 2 2 2 2
-5 -5 -5 -4 -4 -4 -4 -3 -3 -2 -2 -2 -1 -1 -0 0 0 1 1 1 1 1 2 2 2 2 2 2 2 2 2 2 2 2 2 2 2 2 2 1 1 1 1
-6 -5 -5 -5 -5 -5 -4 -4 -3 -3 -3 -3 -2 -2 -1 -1 -0 -0 0 1 1 1 1 1 1 1 1 1 1 1 2 2 2 2 1 1 1 1 1 1 1 1 1
-6 -6 -6 -5 -5 -5 -5 -5 -4 -4 -4 -3 -3 -3 -2 -2 -1 -1 -0 -0 0 0 0 0 1 1 1 1 1 1 1 1 1 1 1 1 1 0 0 0 0 -0 -0
-7 -7 -6 -6 -6 -6 -6 -5 -5 -5 -4 -4 -4 -3 -3 -2 -2 -2 -1 -1 -1 -1 -1 -0 -0 -0 -0 0 -0 -0 -0 -0 0 0 0 0 -0 -0 -0 -1 -1 -1 -1
-7 -7 -7 -7 -7 -6 -6 -6 -5 -5 -5 -4 -4 -4 -3 -3 -2 -2 -2 -2 -1 -1 -1 -1 -1 -1 -1 -1 -1 -0 -1 -1 -1 -1 -1 -1 -1 -1 -1 -1 -1 -1 -1
-8 -8 -8 -8 -7 -7 -7 -7 -6 -5 -5 -5 -4 -4 -4 -3 -3 -2 -2 -2 -2 -2 -2 -2 -1 -1 -1 -1 -1 -1 -1 -1 -1 -1 -1 -2 -2 -2 -2 -2 -2 -2 -2
-8 -8 -8 -8 -8 -8 -7 -7 -7 -6 -6 -5 -5 -5 -4 -4 -3 -3 -3 -2 -2 -2 -2 -2 -2 -2 -2 -2 -2 -2 -2 -2 -2 -2 -2 -2 -2 -2 -2 -2 -2 -2 -3
-9 -9 -8 -8 -8 -8 -8 -8 -7 -7 -7 -6 -6 -5 -5 -4 -4 -4 -3 -3 -3 -3 -3 -3 -3 -3 -2 -2 -2 -2 -2 -2 -2 -2 -2 -2 -3 -3 -3 -3 -3 -3 -3
-9 -9 -9 -9 -9 -9 -9 -8 -8 -8 -7 -7 -7 -6 -6 -5 -5 -5 -4 -4 -4 -4 -4 -4 -3 -3 -3 -3 -3 -3 -3 -3 -3 -3 -3 -3 -3 -3 -3 -3 -4 -4 -4
-9 -9 -9 -9 -9 -9 -9 -9 -9 -8 -8 -8 -7 -7 -7 -6 -6 -6 -5 -5 -5 -5 -4 -4 -4 -4 -4 -4 -4 -4 -3 -3 -3 -3 -3 -4 -4 -4 -4 -4 -4 -4 -5
-10 -9 -9 -9 -9 -9 -9 -9 -9 -9 -9 -8 -8 -7 -7 -7 -7 -6 -6 -6 -6 -5 -5 -5 -5 -5 -4 -4 -4 -4 -4 -4 -4 -4 -4 -4 -4 -5 -5 -5 -5 -5 -5
-10 -10 -10 -10 -10 -10 -10 -9 -9 -9 -9 -9 -8 -8 -8 -7 -7 -7 -7 -6 -6 -6 -6 -6 -6 -5 -5 -5 -5 -5 -5 -5 -5 -5 -5 -5 -5 -5 -5 -5 -5 -5 -6
-10 -10 -10 -10 -10 -10 -10 -10 -10 -10 -9 -9 -9 -8 -8 -8 -8 -7 -7 -7 -7 -7 -6 -6 -6 -6 -6 -6 -6 -6 -5 -5 -5 -5 -5 -6 -6 -6 -6 -6 -6 -6 -6
-11 -11 -11 -11 -11 -11 -10 -10 -10 -10 -10 -9 -9 -9 -9 -8 -8 -8 -8 -8 -7 -7 -7 -7 -7 -6 -6 -6 -6 -6 -6 -6 -6 -6 -6 -6 -6 -6 -6 -6 -7 -7 -7
-11 -11 -11 -11 -11 -11 -11 -11 -10 -10 -10 -10 -10 -9 -9 -9 -9 -8 -8 -8 -8 -8 -7 -7 -7 -7 -7 -7 -7 -7 -7 -7 -7 -7 -7 -7 -7 -7 -7 -7 -7 -7 -7
Wind_Speed
5 4 4 4 3 3 3 4 4 4 4 4 4 5 5 5 5 6 6 6 6 5 4 5 5 4 4 3 3 3 2 3 3 2 1 2 3 3 3 4 4 3 3
5 5 4 4 3 3 4 4 4 4 4 4 3 4 5 5 5 6 6 6 7 7 6 5 5 4 5 4 4 4 4 3 3 3 2 2 2 4 4 3 2 3 3
5 5 4 4 3 3 4 4 4 4 4 3 3 4 5 5 6 6 6 6 7 7 7 7 6 5 5 4 5 5 4 3 3 3 3 2 1 2 2 2 2 1 2
5 5 5 5 5 4 4 4 3 4 3 3 3 3 4 5 6 6 6 6 6 6 6 6 6 6 6 6 5 5 4 4 3 3 3 3 2 2 2 2 2 1 1
5 6 6 5 5 4 4 4 3 4 3 3 3 3 3 4 5 6 6 6 6 6 5 5 5 6 7 6 5 5 6 5 4 4 4 3 3 3 4 3 3 1 1
6 6 6 5 4 4 4 3 3 4 3 2 3 3 3 3 4 5 6 6 6 6 6 5 5 6 7 7 7 6 7 7 6 5 4 5 5 4 3 4 3 2 2
6 6 6 6 4 4 4 3 4 4 3 2 3 3 4 4 4 4 5 5 5 6 6 5 4 4 6 5 5 6 5 6 8 7 7 7 6 6 5 5 4 3 3
7 7 7 6 5 4 4 4 5 4 3 3 3 3 3 4 4 4 4 4 5 5 6 6 6 5 5 6 5 4 4 4 5 5 6 6 5 6 6 5 4 2 1
8 8 8 6 5 4 4 4 5 4 4 4 4 3 3 4 4 4 4 4 4 5 5 5 6 6 7 8 6 5 4 2 2 4 4 3 5 6 8 5 4 3 2
8 9 8 7 6 5 5 5 4 4 4 4 4 3 3 4 4 4 4 3 4 4 3 4 6 6 7 8 7 6 6 4 4 3 2 2 3 5 7 6 6 4 2
8 8 8 7 6 5 5 4 4 4 4 3 3 3 3 4 4 4 5 4 4 4 3 3 4 6 7 7 7 6 6 5 4 4 3 2 2 3 3 3 4 4 4
8 8 8 8 6 5 5 4 3 3 3 3 3 3 3 2 3 4 5 5 5 4 4 3 4 6 6 7 6 6 6 5 4 4 3 3 2 2 2 3 3 3 2
8 8 8 8 6 5 4 4 3 2 2 2 2 3 2 2 2 3 2 3 3 3 3 4 5 6 5 4 5 6 6 4 4 4 4 3 2 3 3 3 3 4 4
8 8 7 6 6 5 4 3 2 2 2 2 3 3 2 2 1 1 1 1 2 2 3 4 5 5 4 4 3 3 3 4 4 4 4 3 2 3 3 2 2 2 1
7 7 6 6 5 4 4 3 3 2 3 3 3 3 2 2 3 3 2 2 2 3 3 2 2 3 3 2 2 2 3 3 3 3 3 3 3 3 2 2 2 2 2
6 6 5 5 4 4 4 5 6 5 6 5 4 3 3 3 3 2 2 2 3 5 4 3 3 4 4 4 4 3 3 3 3 3 3 3 4 4 3 2 2 2 3
6 6 5 5 4 4 4 4 5 6 6 6 4 4 3 2 1 1 2 3 4 5 3 3 3 3 4 4 3 3 3 3 3 4 4 4 3 3 3 3 3 3 3
6 6 5 4 4 4 4 4 3 3 4 4 4 4 3 3 3 1 2 3 3 3 2 3 3 3 3 3 3 3 3 3 3 3 3 3 4 4 4 4 4 4 3
5 4 4 4 4 3 3 3 3 3 3 3 3 3 4 4 3 3 3 2 2 2 2 2 2 2 2 2 2 3 3 3 3 3 3 3 3 3 3 3 3 4 3
5 7 6 4 3 3 3 3 3 2 2 3 3 3 3 2 2 2 2 1 2 1 1 1 2 2 2 2 2 2 2 2 3 3 3 3 3 3 4 4 4 3 3
4 5 7 4 3 3 3 3 3 2 2 2 2 3 3 1 1 1 1 1 1 1 1 1 1 1 1 2 2 2 2 2 2 2 2 3 3 3 3 3 3 3 2
4 4 4 3 3 3 3 3 2 2 3 3 2 2 4 2 1 1 1 1 1 0 0 1 1 1 1 1 2 2 3 2 2 2 2 2 3 3 3 3 3 3 3
4 4 4 4 3 4 4 3 3 2 3 3 2 2 2 1 1 1 1 1 1 1 1 1 0 0 0 1 1 2 3 3 3 3 3 3 3 3 3 3 3 3 3
3 4 3 3 3 3 3 3 3 3 3 3 2 2 1 1 1 1 1 1 1 1 1 1 0 0 0 1 1 2 2 3 3 4 5 4 4 3 3 3 3 4 4
3 3 3 3 3 3 3 3 3 3 3 3 2 2 2 2 1 1 2 2 2 1 1 1 1 1 1 1 2 2 3 3 3 3 4 4 4 4 3 4 3 3 3
3 3 3 3 3 3 3 3 3 3 2 2 2 2 2 2 2 2 2 2 2 2 2 2 2 2 2 2 3 3 3 4 4 4 4 4 4 4 4 3 4 4 4
Wind_Direction
330 320 315 308 306 291 271 266 258 258 264 242 244 222 210 209 206 199 197 190 193 194 189 189 195 182 178 183 176 174 176 165 186 210 184 169 166 172 179 188 194 199 216
325 321 309 305 299 296 287 279 271 260 261 241 244 239 217 210 207 205 200 196 196 198 195 191 197 189 186 184 183 188 189 184 179 197 194 180 192 184 171 170 187 202 216
327 324 315 309 298 287 290 283 280 273 268 251 231 242 230 215 209 208 202 197 200 201 197 196 197 187 196 193 190 192 191 186 180 179 192 180 180 172 158 158 160 191 222
329 324 314 307 303 293 294 289 283 277 259 251 240 247 242 221 211 205 204 201 203 205 201 199 196 196 202 196 194 195 183 180 176 177 185 181 178 170 170 182 205 210 227
326 319 310 308 309 309 306 302 295 290 270 257 253 253 254 226 213 206 204 204 203 202 198 197 199 201 201 198 197 192 183 186 184 188 189 186 190 185 199 191 205 198 239
317 310 307 305 306 305 303 300 300 292 280 263 253 246 257 244 226 217 209 207 202 201 201 200 202 203 205 202 201 195 190 189 194 196 201 206 210 203 189 182 182 184 241
314 311 314 307 299 299 300 300 294 283 280 274 264 250 253 257 234 222 215 211 203 202 202 199 200 202 195 196 197 197 205 204 199 197 201 210 207 200 185 188 197 206 222
322 320 315 309 299 298 298 294 293 282 268 262 261 253 252 260 242 220 219 212 207 204 203 198 199 199 198 189 183 188 201 214 212 204 204 210 207 194 189 191 187 166 88
329 323 319 314 305 298 291 284 281 275 271 263 258 249 245 257 249 222 219 215 209 205 201 197 195 195 194 184 180 184 190 204 201 188 189 192 190 183 169 147 154 164 222
324 320 317 314 304 292 283 281 278 269 265 269 268 256 242 247 253 237 223 208 207 202 195 195 194 192 189 185 185 183 193 198 169 153 135 128 148 159 168 175 178 180 184
318 319 320 318 310 296 294 281 265 263 264 265 269 272 257 248 255 244 226 205 205 201 197 195 195 185 186 186 186 187 192 176 164 163 157 149 137 139 153 166 173 179 184
323 323 323 323 319 316 308 293 270 253 255 261 269 285 286 270 266 249 229 215 203 197 200 193 186 177 179 181 185 182 172 160 154 154 159 170 174 177 170 153 150 145 155
326 324 323 325 326 327 318 304 287 258 244 253 255 266 280 282 282 289 244 209 189 187 180 170 165 168 170 175 178 174 168 167 162 166 180 193 188 173 150 135 120 111 90
323 322 322 327 331 336 331 322 309 273 252 251 251 253 256 263 259 275 256 195 154 151 139 137 139 150 156 151 155 165 172 171 172 178 174 166 147 150 163 163 166 159 149
321 321 325 326 327 331 334 330 321 307 265 256 253 249 243 245 250 266 235 203 187 173 145 139 142 153 154 153 151 155 160 165 169 164 160 159 165 167 172 169 163 161 181
324 326 324 324 326 330 332 334 340 331 328 314 298 276 261 259 267 255 246 199 175 158 150 164 177 177 176 175 175 173 171 177 175 169 171 175 180 183 180 173 167 179 194
317 316 317 323 326 330 331 331 331 336 342 342 340 332 321 313 302 250 194 161 157 152 155 165 173 178 179 177 176 177 183 183 174 171 177 182 183 182 182 185 187 194 205
316 315 319 317 318 319 322 324 325 328 332 337 351 358 356 5 20 26 140 131 141 141 147 159 168 168 166 169 174 177 175 173 174 174 178 183 186 186 188 190 194 200 205
323 324 321 320 320 319 321 325 327 329 331 332 341 357 4 10 31 55 75 111 137 142 142 148 151 153 157 159 165 168 170 175 176 174 178 181 182 183 190 194 196 197 199
330 333 334 329 329 329 329 329 331 333 335 337 339 338 344 11 40 46 52 83 112 125 128 134 137 142 150 155 159 161 162 168 171 175 180 183 186 184 187 191 192 194 199
328 329 336 336 335 331 328 329 327 327 327 326 322 330 347 13 42 46 54 72 97 125 123 117 133 141 148 157 162 163 163 173 176 180 186 191 188 187 187 188 191 189 187
327 327 330 331 331 330 328 327 328 329 325 320 322 339 0 28 41 30 30 40 53 51 83 117 153 163 176 178 178 176 177 183 189 189 189 191 191 188 184 183 185 189 190
328 329 331 332 331 332 336 336 332 327 321 323 330 338 352 14 25 16 1 357 18 30 29 46 111 136 129 192 193 191 196 202 207 196 192 195 196 195 192 193 194 198 207
323 322 323 326 330 332 331 330 329 328 326 328 334 337 344 359 356 347 341 348 360 5 12 17 356 257 278 269 254 244 241 233 216 208 197 196 198 198 195 197 202 207 211
316 315 316 318 321 324 324 324 322 319 320 325 328 331 340 351 351 341 342 347 348 350 348 344 331 306 273 263 261 258 242 227 219 210 204 197 195 194 196 202 207 206 211
320 318 315 315 317 318 318 318 317 314 316 321 323 323 328 332 329 325 328 328 331 333 331 331 325 311 297 285 269 253 238 228 221 216 204 199 194 199 198 205 204 208 208
Height
1483 1483 1483 1484 1485 1486 1488 1489 1490 1492 1493 1494 1496 1498 1500 1503 1506 1509 1512 1515 1518 1520 1523 1526 1529 1532 1534 1537 1539 1540 1542 1544 1544 1546 1548 1549 1551 1552 1553 1554 1555 1555 1556
1480 1480 1480 1480 1481 1483 1483 1485 1486 1488 1489 1491 1492 1494 1496 1499 1501 1504 1507 1510 1513 1515 1518 1521 1524 1527 1530 1532 1534 1536 1538 1539 1541 1541 1543 1545 1546 1548 1549 1550 1551 1552 1552
1476 1476 1476 1477 1477 1478 1479 1480 1481 1483 1484 1486 1488 1490 1492 1495 1497 1500 1502 1505 1508 1511 1513 1516 1519 1522 1524 1527 1529 1531 1533 1535 1536 1537 1539 1540 1542 1543 1544 1545 1546 1547 1548
1474 1473 1473 1473 1473 1474 1475 1476 1477 1478 1480 1481 1484 1486 1488 1491 1493 1495 1498 1501 1504 1506 1509 1511 1514 1517 1519 1522 1524 1526 1528 1530 1531 1533 1534 1535 1537 1538 1539 1540 1542 1543 1543
1470 1470 1469 1469 1469 1470 1470 1471 1472 1474 1475 1477 1479 1481 1483 1485 1488 1490 1493 1496 1499 1501 1504 1506 1509 1512 1514 1517 1519 1521 1523 1525 1526 1528 1529 1530 1531 1533 1534 1536 1537 1538 1539
1467 1467 1466 1466 1466 1466 1467 1468 1469 1469 1470 1471 1474 1476 1478 1480 1483 1486 1488 1491 1493 1496 1498 1501 1504 1507 1509 1511 1514 1516 1518 1519 1521 1522 1524 1525 1526 1528 1530 1531 1532 1533 1534
1464 1463 1463 1462 1462 1462 1462 1463 1464 1465 1466 1467 1469 1471 1473 1475 1478 1481 1483 1486 1488 1491 1493 1496 1498 1501 1504 1506 1508 1510 1512 1514 1516 1518 1518 1520 1521 1523 1524 1526 1527 1528 1529
1461 1460 1459 1459 1458 1458 1458 1459 1460 1461 1461 1463 1464 1466 1468 1470 1473 1476 1478 1481 1483 1485 1488 1490 1493 1495 1498 1500 1502 1504 1506 1508 1511 1512 1513 1515 1517 1518 1520 1521 1522 1523 1524
1458 1457 1456 1455 1454 1454 1454 1455 1456 1456 1457 1459 1460 1461 1463 1465 1468 1470 1473 1475 1477 1480 1482 1485 1487 1489 1492 1494 1497 1498 1500 1503 1505 1507 1508 1510 1512 1513 1515 1516 1517 1518 1519
1455 1454 1453 1452 1451 1450 1450 1450 1451 1452 1453 1454 1455 1457 1459 1461 1463 1465 1468 1469 1472 1474 1477 1479 1482 1484 1486 1489 1491 1493 1494 1497 1500 1501 1503 1505 1506 1508 1509 1511 1513 1514 1514
1454 1452 1450 1448 1447 1447 1446 1446 1447 1448 1448 1449 1450 1452 1454 1456 1458 1460 1463 1465 1467 1469 1471 1474 1477 1479 1481 1484 1486 1487 1489 1493 1495 1497 1498 1500 1501 1503 1504 1506 1508 1509 1510
1451 1449 1447 1445 1444 1443 1443 1443 1443 1444 1444 1445 1446 1448 1450 1452 1453 1455 1458 1461 1463 1465 1466 1469 1471 1474 1476 1479 1481 1482 1485 1488 1490 1492 1493 1495 1496 1498 1500 1502 1503 1505 1506
1448 1446 1444 1443 1441 1440 1440 1439 1439 1440 1440 1441 1442 1443 1445 1447 1449 1451 1453 1455 1458 1460 1461 1464 1466 1469 1471 1473 1476 1478 1480 1482 1484 1486 1488 1490 1492 1494 1495 1497 1498 1500 1501
1445 1443 1441 1440 1438 1437 1436 1436 1436 1436 1436 1437 1438 1440 1441 1443 1445 1447 1448 1450 1452 1455 1457 1459 1461 1464 1466 1468 1470 1473 1475 1477 1479 1481 1483 1486 1488 1489 1490 1492 1493 1494 1495
1443 1441 1439 1437 1436 1435 1433 1433 1432 1432 1433 1434 1434 1436 1437 1439 1441 1443 1445 1446 1448 1450 1452 1455 1457 1459 1461 1463 1466 1468 1470 1473 1475 1477 1479 1481 1483 1484 1485 1487 1488 1490 1491
1440 1438 1436 1435 1434 1432 1431 1430 1430 1430 1430 1431 1432 1434 1435 1436 1437 1439 1441 1443 1445 1447 1449 1450 1452 1454 1456 1459 1461 1463 1466 1468 1470 1472 1474 1476 1478 1479 1481 1482 1484 1485 1485
1438 1436 1434 1433 1431 1430 1429 1428 1427 1427 1428 1428 1429 1430 1431 1433 1434 1436 1437 1440 1441 1443 1445 1446 1449 1451 1453 1455 1457 1459 1461 1464 1466 1468 1470 1471 1473 1475 1476 1478 1479 1480 1481
1436 1434 1432 1430 1429 1428 1428 1427 1426 1425 1425 1424 1426 1427 1428 1429 1430 1432 1434 1436 1437 1439 1441 1443 1445 1447 1449 1451 1453 1455 1458 1460 1462 1464 1465 1467 1469 1470 1471 1472 1473 1475 1476
1434 1431 1430 1429 1428 1427 1426 1425 1425 1424 1424 1423 1423 1424 1425 1426 1427 1429 1430 1432 1433 1435 1437 1439 1441 1443 1445 1448 1450 1452 1454 1456 1458 1459 1461 1463 1464 1466 1467 1468 1469 1470 1471
1432 1430 1429 1428 1426 1425 1425 1424 1423 1423 1422 1422 1422 1422 1422 1423 1424 1426 1427 1429 1431 1432 1434 1436 1438 1440 1442 1444 1446 1448 1450 1452 1453 1455 1456 1458 1460 1461 1462 1463 1464 1465 1466
1431 1429 1428 1426 1425 1424 1423 1422 1422 1421 1421 1420 1420 1421 1421 1422 1422 1424 1425 1427 1428 1430 1431 1433 1436 1438 1440 1441 1443 1445 1446 1448 1449 1451 1452 1454 1455 1456 1457 1459 1460 1461 1461
1430 1428 1426 1425 1424 1423 1422 1421 1420 1420 1419 1419 1419 1420 1420 1420 1421 1422 1423 1424 1426 1428 1430 1431 1433 1434 1436 1438 1439 1441 1442 1444 1445 1447 1448 1449 1451 1452 1453 1454 1455 1456 1457
1428 1427 1425 1424 1423 1421 1420 1420 1419 1419 1418 1418 1417 1418 1418 1419 1419 1420 1421 1423 1424 1426 1427 1429 1430 1432 1433 1435 1436 1438 1439 1440 1442 1443 1444 1445 1446 1447 1448 1449 1451 1452 1452
1427 1425 1424 1423 1421 1420 1419 1418 1418 1417 1417 1416 1416 1417 1417 1417 1418 1419 1420 1421 1423 1424 1425 1426 1428 1429 1430 1432 1433 1434 1435 1437 1438 1439 1440 1441 1442 1443 1444 1445 1447 1448 1448
1426 1424 1423 1421 1420 1419 1418 1417 1417 1416 1416 1415 1415 1415 1415 1416 1416 1417 1419 1420 1421 1422 1423 1424 1425 1426 1427 1429 1430 1431 1432 1433 1434 1435 1436 1437 1438 1439 1440 1442 1442 1443 1444
1424 1423 1421 1420 1419 1418 1417 1416 1415 1414 1414 1414 1414 1415 1415 1415 1415 1416 1417 1418 1419 1420 1421 1422 1423 1423 1424 1425 1426 1427 1428 1429 1430 1431 1432 1433 1434 1435 1436 1437 1438 1439 1440